OK2ILA-6 Weather Reports


Display with metric or nautical units.
time (UTC)temp
F
wind
direction
speed
MPH
gust
MPH
rain 1hr
in
rain 24hr
in
rain mn
in
humidity
%
barometer
mb
20260507085002 73 0.0 0.0 0.00 0.00 0.00 54 1009.6
20260507084003 72 0.0 0.0 0.00 0.00 0.00 58 1009.4
20260507083003 72 0.0 0.0 0.00 0.00 0.00 58 1009.4
20260507082003 72 0.0 0.0 0.00 0.00 0.00 58 1009.4
20260507081002 72 0.0 0.0 0.00 0.00 0.00 58 1009.2
20260507080003 72 0.0 0.0 0.00 0.00 0.00 59 1009.2
20260507075003 70 0.0 0.0 0.00 0.00 0.00 64 1009.0
20260507074003 70 0.0 0.0 0.00 0.00 0.00 64 1009.0
20260507073003 70 0.0 0.0 0.00 0.00 0.00 66 1009.1
20260507072002 68 0.0 0.0 0.00 0.00 0.00 69 1009.0
20260507071003 67 0.0 0.0 0.00 0.00 0.00 70 1008.8
20260507070004 66 0.0 0.0 0.00 0.00 0.00 72 1008.8
20260507065003 64 0.0 0.0 0.00 0.00 0.00 72 1008.8
20260507064002 64 0.0 0.0 0.00 0.00 0.00 73 1008.8
20260507063002 64 0.0 0.0 0.00 0.00 0.00 74 1008.6
20260507062003 63 0.0 0.0 0.00 0.00 0.00 76 1008.4
20260507061003 62 0.0 0.0 0.00 0.00 0.00 78 1008.4
20260507060003 62 0.0 0.0 0.00 0.00 0.00 78 1008.4
20260507055002 62 0.0 0.0 0.00 0.00 0.00 79 1008.4
20260507054003 62 0.0 0.0 0.00 0.00 0.00 80 1008.2
20260507053003 60 0.0 0.0 0.00 0.00 0.00 82 1008.1
20260507052003 60 0.0 0.0 0.00 0.00 0.00 83 1008.0
20260507051002 59 0.0 0.0 0.00 0.00 0.00 84 1008.2
20260507050002 59 0.0 0.0 0.00 0.00 0.00 84 1007.9
20260507045003 58 0.0 0.0 0.00 0.00 0.00 86 1008.0
20260507044003 58 0.0 0.0 0.00 0.00 0.00 86 1007.8
20260507043003 58 0.0 0.0 0.00 0.00 0.00 86 1007.6
20260507042002 58 0.0 0.0 0.00 0.00 0.00 86 1007.5
20260507041003 58 0.0 0.0 0.00 0.00 0.00 86 1007.4
20260507040003 58 0.0 0.0 0.00 0.00 0.00 86 1007.4
20260507035003 58 0.0 0.0 0.00 0.00 0.00 86 1007.2
20260507034003 57 0.0 0.0 0.00 0.00 0.00 86 1006.9
20260507033002 57 0.0 0.0 0.00 0.00 0.00 86 1006.8
20260507032003 57 0.0 0.0 0.00 0.00 0.00 86 1007.0
20260507031003 57 0.0 0.0 0.00 0.00 0.00 85 1007.0
20260507030003 57 0.0 0.0 0.00 0.00 0.00 85 1006.8
20260507025002 56 0.0 0.0 0.00 0.00 0.00 85 1006.8
20260507024003 56 0.0 0.0 0.00 0.00 0.00 86 1006.6
20260507023003 56 0.0 0.0 0.00 0.00 0.00 86 1006.5
20260507022003 56 0.0 0.0 0.00 0.00 0.00 86 1006.3
20260507021002 56 0.0 0.0 0.00 0.00 0.00 86 1006.1
20260507020002 56 0.0 0.0 0.00 0.00 0.00 86 1006.2
20260507015003 56 0.0 0.0 0.00 0.00 0.00 86 1006.0
20260507014003 56 0.0 0.0 0.00 0.00 0.00 86 1006.0
20260507013003 56 0.0 0.0 0.00 0.00 0.00 86 1005.9
20260507012002 56 0.0 0.0 0.00 0.00 0.00 84 1005.9
20260507011002 56 0.0 0.0 0.00 0.00 0.00 84 1005.8
20260507010003 56 0.0 0.0 0.00 0.00 0.00 84 1005.8
20260507005003 56 0.0 0.0 0.00 0.00 0.00 84 1005.8
20260507004002 57 0.0 0.0 0.00 0.00 0.00 84 1005.8
20260507003002 57 0.0 0.0 0.00 0.00 0.00 83 1005.6
20260507002003 58 0.0 0.0 0.00 0.00 0.00 82 1005.5
20260507001003 58 0.0 0.0 0.00 0.00 0.00 82 1005.6
20260507000003 58 0.0 0.0 0.00 0.00 0.00 81 1005.8
20260506235002 58 0.0 0.0 0.00 0.00 0.00 81 1006.0
20260506234002 59 0.0 0.0 0.00 0.00 0.00 81 1005.8
20260506233003 59 0.0 0.0 0.00 0.00 0.00 80 1005.6
20260506232003 60 0.0 0.0 0.00 0.00 0.00 79 1005.6
20260506231002 60 0.0 0.0 0.00 0.00 0.00 78 1005.6
20260506230002 60 0.0 0.0 0.00 0.00 0.00 76 1005.6
20260506225003 61 0.0 0.0 0.00 0.00 0.00 76 1005.6
20260506224003 62 0.0 0.0 0.00 0.00 0.00 74 1005.6
20260506223003 65 0.0 0.0 0.00 0.00 0.00 65 1005.6
20260506222002 65 0.0 0.0 0.00 0.00 0.00 65 1005.6
20260506221002 64 0.0 0.0 0.00 0.00 0.00 66 1005.5
20260506220003 64 0.0 0.0 0.00 0.00 0.00 65 1005.4
20260506215003 65 0.0 0.0 0.00 0.00 0.00 64 1005.2
20260506214003 65 0.0 0.0 0.00 0.00 0.00 64 1005.2
20260506213002 65 0.0 0.0 0.00 0.00 0.00 64 1005.2
20260506212003 66 0.0 0.0 0.00 0.00 0.00 62 1005.1
20260506211003 66 0.0 0.0 0.00 0.00 0.00 61 1005.0
20260506210003 66 0.0 0.0 0.00 0.00 0.00 60 1005.0
20260506205002 67 0.0 0.0 0.00 0.00 0.00 60 1005.0
20260506204003 68 0.0 0.0 0.00 0.00 0.00 58 1004.9
20260506203003 68 0.0 0.0 0.00 0.00 0.00 58 1005.0
20260506202003 68 0.0 0.0 0.00 0.00 0.00 58 1004.8
20260506201002 68 0.0 0.0 0.00 0.00 0.00 58 1004.8
20260506200003 68 0.0 0.0 0.00 0.00 0.00 58 1004.7
20260506195003 67 0.0 0.0 0.00 0.00 0.00 60 1004.8
20260506194003 67 0.0 0.0 0.00 0.00 0.00 60 1004.6
20260506193002 67 0.0 0.0 0.00 0.00 0.00 59 1004.6
20260506192002 68 0.0 0.0 0.00 0.00 0.00 59 1004.6
20260506191003 68 0.0 0.0 0.00 0.00 0.00 58 1004.6
20260506190003 68 0.0 0.0 0.00 0.00 0.00 57 1004.3
20260506185003 69 0.0 0.0 0.00 0.00 0.00 56 1004.2
20260506184002 69 0.0 0.0 0.00 0.00 0.00 56 1004.2
20260506183002 69 0.0 0.0 0.00 0.00 0.00 56 1004.0
20260506182003 70 0.0 0.0 0.00 0.00 0.00 54 1003.8
20260506181003 70 0.0 0.0 0.00 0.00 0.00 55 1003.8
20260506180003 70 0.0 0.0 0.00 0.00 0.00 54 1003.8
20260506175002 71 0.0 0.0 0.00 0.00 0.00 54 1003.8
20260506174003 72 0.0 0.0 0.00 0.00 0.00 53 1003.9
20260506173003 72 0.0 0.0 0.00 0.00 0.00 52 1003.8
20260506172003 73 0.0 0.0 0.00 0.00 0.00 51 1004.0
20260506171002 74 0.0 0.0 0.00 0.00 0.00 50 1004.2
20260506170002 74 0.0 0.0 0.00 0.00 0.00 50 1004.1
20260506165003 74 0.0 0.0 0.00 0.00 0.00 48 1004.2
20260506164003 75 0.0 0.0 0.00 0.00 0.00 48 1004.2
20260506163002 75 0.0 0.0 0.00 0.00 0.00 48 1004.2
20260506162002 75 0.0 0.0 0.00 0.00 0.00 49 1004.2
20260506161003 76 0.0 0.0 0.00 0.00 0.00 48 1004.4
20260506160003 77 0.0 0.0 0.00 0.00 0.00 48 1004.6
20260506155003 76 0.0 0.0 0.00 0.00 0.00 49 1004.8
20260506154002 74 0.0 0.0 0.00 0.00 0.00 50 1005.0
20260506153002 74 0.0 0.0 0.00 0.00 0.00 49 1005.0
20260506152003 76 0.0 0.0 0.00 0.00 0.00 50 1005.0
20260506151003 76 0.0 0.0 0.00 0.00 0.00 50 1005.2
20260506150003 76 0.0 0.0 0.00 0.00 0.00 46 1005.2
20260506145002 76 0.0 0.0 0.00 0.00 0.00 46 1005.4
20260506144003 76 0.0 0.0 0.00 0.00 0.00 46 1005.4
20260506143003 76 0.0 0.0 0.00 0.00 0.00 46 1005.4
20260506142003 76 0.0 0.0 0.00 0.00 0.00 46 1005.6
20260506141002 76 0.0 0.0 0.00 0.00 0.00 45 1005.6
20260506140002 78 0.0 0.0 0.00 0.00 0.00 44 1005.6
20260506135003 78 0.0 0.0 0.00 0.00 0.00 43 1005.6
20260506134003 78 0.0 0.0 0.00 0.00 0.00 42 1005.8
20260506133002 77 0.0 0.0 0.00 0.00 0.00 43 1005.9
20260506132002 77 0.0 0.0 0.00 0.00 0.00 44 1006.1
20260506131003 78 0.0 0.0 0.00 0.00 0.00 42 1006.0
20260506130003 80 0.0 0.0 0.00 0.00 0.00 42 1006.0
20260506125003 80 0.0 0.0 0.00 0.00 0.00 40 1005.9
20260506124002 80 0.0 0.0 0.00 0.00 0.00 42 1006.1
20260506123002 80 0.0 0.0 0.00 0.00 0.00 44 1006.0
20260506122003 80 0.0 0.0 0.00 0.00 0.00 43 1006.2
20260506121003 79 0.0 0.0 0.00 0.00 0.00 42 1006.1
20260506120003 78 0.0 0.0 0.00 0.00 0.00 42 1006.1
20260506115002 79 0.0 0.0 0.00 0.00 0.00 42 1006.0
20260506114003 78 0.0 0.0 0.00 0.00 0.00 44 1006.0
20260506113003 78 0.0 0.0 0.00 0.00 0.00 44 1006.2
20260506112003 78 0.0 0.0 0.00 0.00 0.00 42 1006.2
20260506111003 78 0.0 0.0 0.00 0.00 0.00 42 1006.2
20260506110002 78 0.0 0.0 0.00 0.00 0.00 44 1006.2
20260506105003 77 0.0 0.0 0.00 0.00 0.00 45 1006.2
20260506104003 78 0.0 0.0 0.00 0.00 0.00 46 1006.0
20260506103003 78 0.0 0.0 0.00 0.00 0.00 46 1006.2
20260506102002 78 0.0 0.0 0.00 0.00 0.00 47 1006.2
20260506101003 77 0.0 0.0 0.00 0.00 0.00 48 1006.4
20260506100003 74 0.0 0.0 0.00 0.00 0.00 52 1006.6
20260506095003 76 0.0 0.0 0.00 0.00 0.00 50 1006.6
20260506094003 76 0.0 0.0 0.00 0.00 0.00 50 1006.8
20260506093002 74 0.0 0.0 0.00 0.00 0.00 54 1006.8
20260506092003 73 0.0 0.0 0.00 0.00 0.00 52 1006.8
20260506091003 74 0.0 0.0 0.00 0.00 0.00 52 1006.6
20260506090003 74 0.0 0.0 0.00 0.00 0.00 50 1006.8